SFR138 FACT-FAPE

Flight info

Callsign SFR138
Flight time 1h 2m
Altitude 31000
Route OKTED1C OKTED UQ12 XUGOL UQ56 OKSET DCT PEV
Aircraft B738/M-SDE2E3FGHIRWXY/LB1

Departure

Time 2026-04-23 14:47
Airport Cape Town International Airport (FACT)

Arrival

Time 2026-04-23 15:50
Airport Chief Dawid Stuurman International Airport (FAPE)
Time Latitude Longitude Altitude Speed Heading
2026-04-23 14:16 -33.97075 18.59861 156 ft 0 kts 255°
2026-04-23 14:35 -33.97074 18.59864 156 ft 2 kts 254°
2026-04-23 14:35 -33.97070 18.59884 156 ft 2 kts 255°
2026-04-23 14:36 -33.97065 18.59903 156 ft 2 kts 256°
2026-04-23 14:36 -33.97062 18.59922 156 ft 2 kts 259°
2026-04-23 14:36 -33.97060 18.59942 156 ft 2 kts 283°
2026-04-23 14:36 -33.97068 18.59954 156 ft 1 kts 344°
2026-04-23 14:37 -33.97070 18.59955 156 ft 0 kts 345°
2026-04-23 14:41 -33.97068 18.59954 156 ft 3 kts 345°
2026-04-23 14:41 -33.97026 18.59941 156 ft 11 kts 345°
2026-04-23 14:41 -33.96937 18.59912 156 ft 14 kts 345°
2026-04-23 14:41 -33.96856 18.59886 156 ft 13 kts 345°
2026-04-23 14:42 -33.96770 18.59858 156 ft 9 kts 345°
2026-04-23 14:42 -33.96692 18.59833 156 ft 14 kts 345°
2026-04-23 14:42 -33.96583 18.59798 156 ft 18 kts 345°
2026-04-23 14:42 -33.96450 18.59767 156 ft 19 kts 350°
2026-04-23 14:43 -33.96336 18.59743 156 ft 17 kts 350°
2026-04-23 14:43 -33.96274 18.59730 156 ft 0 kts 350°
2026-04-23 14:43 -33.96235 18.59730 155 ft 13 kts 12°
2026-04-23 14:43 -33.96162 18.59804 153 ft 15 kts 45°
2026-04-23 14:44 -33.96088 18.59896 153 ft 11 kts 45°
2026-04-23 14:44 -33.96072 18.59915 153 ft 0 kts 45°
2026-04-23 14:44 -33.96064 18.59925 153 ft 4 kts 45°
2026-04-23 14:45 -33.96036 18.59991 153 ft 14 kts 90°
2026-04-23 14:45 -33.96081 18.60039 153 ft 0 kts 162°
2026-04-23 14:45 -33.96098 18.60044 153 ft 1 kts 165°
2026-04-23 14:45 -33.96105 18.60047 153 ft 2 kts 165°
2026-04-23 14:46 -33.96120 18.60051 153 ft 0 kts 165°
2026-04-23 14:46 -33.96134 18.60056 153 ft 13 kts 165°
2026-04-23 14:46 -33.96454 18.60156 156 ft 85 kts 166°
2026-04-23 14:47 -33.97251 18.60408 152 ft 150 kts 165°
2026-04-23 14:47 -33.98421 18.60773 329 ft 193 kts 166°
2026-04-23 14:47 -33.99770 18.61195 983 ft 203 kts 166°
2026-04-23 14:47 -34.01097 18.61598 1984 ft 189 kts 164°
2026-04-23 14:48 -34.02419 18.62008 2578 ft 209 kts 164°
2026-04-23 14:48 -34.03918 18.62466 2838 ft 233 kts 165°
2026-04-23 14:48 -34.05576 18.62972 3128 ft 259 kts 164°
2026-04-23 14:48 -34.07351 18.63525 3873 ft 267 kts 161°
2026-04-23 14:49 -34.08917 18.64695 4683 ft 268 kts 128°
2026-04-23 14:49 -34.09666 18.66726 5503 ft 268 kts 97°
2026-04-23 14:49 -34.09914 18.68972 6337 ft 273 kts 96°
2026-04-23 14:49 -34.10173 18.71253 7112 ft 276 kts 96°
2026-04-23 14:50 -34.10450 18.73560 7921 ft 279 kts 97°
2026-04-23 14:50 -34.10747 18.75893 8709 ft 283 kts 98°
2026-04-23 14:50 -34.11059 18.78249 9504 ft 286 kts 98°
2026-04-23 14:50 -34.11386 18.80641 10263 ft 291 kts 98°
2026-04-23 14:51 -34.11729 18.83119 10608 ft 311 kts 98°
2026-04-23 14:51 -34.12105 18.85797 10794 ft 334 kts 98°
2026-04-23 14:51 -34.12505 18.88616 11260 ft 347 kts 98°
2026-04-23 14:51 -34.12919 18.91512 11900 ft 353 kts 99°
2026-04-23 14:52 -34.13339 18.94443 12641 ft 356 kts 99°
2026-04-23 14:52 -34.13763 18.97399 13327 ft 360 kts 99°
2026-04-23 14:52 -34.14194 19.00402 13978 ft 366 kts 99°
2026-04-23 14:52 -34.14629 19.03443 14586 ft 370 kts 99°
2026-04-23 14:53 -34.15068 19.06514 15256 ft 372 kts 99°
2026-04-23 14:53 -34.15509 19.09602 15918 ft 375 kts 99°
2026-04-23 14:53 -34.15953 19.12723 16525 ft 380 kts 98°
2026-04-23 14:53 -34.16400 19.15871 17177 ft 382 kts 98°
2026-04-23 14:54 -34.16851 19.19054 17764 ft 387 kts 98°
2026-04-23 14:54 -34.17305 19.22257 18450 ft 388 kts 98°
2026-04-23 14:54 -34.17762 19.25493 18956 ft 393 kts 98°
2026-04-23 14:54 -34.18222 19.28753 19514 ft 396 kts 99°
2026-04-23 14:55 -34.18685 19.32045 20051 ft 399 kts 99°
2026-04-23 14:55 -34.19149 19.35345 20686 ft 399 kts 99°
2026-04-23 14:55 -34.19616 19.38682 21138 ft 405 kts 99°
2026-04-23 14:55 -34.20085 19.42033 21751 ft 405 kts 99°
2026-04-23 14:56 -34.20554 19.45397 22257 ft 409 kts 99°
2026-04-23 14:56 -34.21024 19.48763 22655 ft 414 kts 99°
2026-04-23 14:56 -34.21501 19.52197 23205 ft 415 kts 99°
2026-04-23 14:56 -34.21906 19.55664 23671 ft 419 kts 94°
2026-04-23 14:57 -34.21887 19.59189 24061 ft 421 kts 85°
2026-04-23 14:57 -34.21647 19.62719 24539 ft 422 kts 84°
2026-04-23 14:57 -34.21373 19.66260 24923 ft 425 kts 84°
2026-04-23 14:57 -34.21096 19.69820 25313 ft 428 kts 84°
2026-04-23 14:58 -34.20826 19.73408 25700 ft 430 kts 84°
2026-04-23 14:58 -34.20565 19.77005 26139 ft 431 kts 84°
2026-04-23 14:58 -34.20309 19.80636 26449 ft 435 kts 85°
2026-04-23 14:58 -34.20056 19.84280 26860 ft 436 kts 85°
2026-04-23 14:59 -34.19804 19.87923 27455 ft 433 kts 85°
2026-04-23 14:59 -34.19554 19.91528 28027 ft 430 kts 85°
2026-04-23 14:59 -34.19303 19.95126 28488 ft 430 kts 85°
2026-04-23 14:59 -34.19050 19.98727 28931 ft 430 kts 85°
2026-04-23 15:00 -34.18797 20.02325 29413 ft 430 kts 85°
2026-04-23 15:00 -34.18543 20.05912 29940 ft 428 kts 85°
2026-04-23 15:00 -34.18289 20.09485 30395 ft 427 kts 85°
2026-04-23 15:00 -34.18035 20.13051 30757 ft 426 kts 85°
2026-04-23 15:01 -34.17779 20.16618 31107 ft 427 kts 85°
2026-04-23 15:01 -34.17570 20.20217 31130 ft 432 kts 89°
2026-04-23 15:01 -34.17701 20.27506 31148 ft 434 kts 92°
2026-04-23 15:02 -34.17964 20.34722 31142 ft 426 kts 92°
2026-04-23 15:02 -34.18187 20.41806 31162 ft 425 kts 91°
2026-04-23 15:03 -34.18377 20.48938 31164 ft 426 kts 91°
2026-04-23 15:03 -34.18553 20.56099 31166 ft 427 kts 91°
2026-04-23 15:04 -34.18724 20.63280 31163 ft 428 kts 91°
2026-04-23 15:04 -34.18891 20.70480 31167 ft 430 kts 91°
2026-04-23 15:05 -34.19056 20.77705 31166 ft 431 kts 91°
2026-04-23 15:05 -34.19217 20.84945 31170 ft 431 kts 91°
2026-04-23 15:06 -34.19374 20.92239 31170 ft 432 kts 91°
2026-04-23 15:06 -34.19526 20.99450 31177 ft 432 kts 90°
2026-04-23 15:07 -34.19674 21.06705 31176 ft 432 kts 90°
2026-04-23 15:07 -34.19818 21.13955 31179 ft 432 kts 90°
2026-04-23 15:08 -34.19958 21.21210 31185 ft 432 kts 90°
2026-04-23 15:09 -34.20159 21.32083 31186 ft 432 kts 90°
2026-04-23 15:09 -34.20289 21.39346 31188 ft 432 kts 90°
2026-04-23 15:10 -34.20392 21.45379 31194 ft 433 kts 90°
2026-04-23 15:10 -34.20530 21.53839 31194 ft 433 kts 90°
2026-04-23 15:11 -34.20645 21.61110 31197 ft 433 kts 90°
2026-04-23 15:11 -34.20756 21.68391 31203 ft 434 kts 90°
2026-04-23 15:12 -34.20863 21.75672 31193 ft 434 kts 90°
2026-04-23 15:12 -34.20965 21.82957 31208 ft 434 kts 90°
2026-04-23 15:13 -34.21063 21.90243 31202 ft 434 kts 90°
2026-04-23 15:13 -34.21157 21.97532 31205 ft 434 kts 90°
2026-04-23 15:14 -34.21246 22.04814 31204 ft 433 kts 89°
2026-04-23 15:14 -34.21317 22.10869 31202 ft 433 kts 89°
2026-04-23 15:15 -34.21399 22.18141 31198 ft 433 kts 89°
2026-04-23 15:15 -34.21476 22.25415 31196 ft 433 kts 89°
2026-04-23 15:16 -34.21550 22.32694 31193 ft 433 kts 89°
2026-04-23 15:16 -34.21619 22.39976 31198 ft 434 kts 89°
2026-04-23 15:17 -34.21684 22.47279 31191 ft 435 kts 89°
2026-04-23 15:17 -34.21747 22.54596 31201 ft 436 kts 89°
2026-04-23 15:18 -34.21805 22.61927 31204 ft 437 kts 89°
2026-04-23 15:18 -34.21860 22.69272 31204 ft 438 kts 89°
2026-04-23 15:19 -34.21909 22.76634 31206 ft 439 kts 89°
2026-04-23 15:19 -34.21954 22.84003 31206 ft 438 kts 89°
2026-04-23 15:20 -34.21997 22.91194 31189 ft 418 kts 89°
2026-04-23 15:20 -34.22032 22.98215 31049 ft 417 kts 89°
2026-04-23 15:20 -34.22048 23.01701 30790 ft 412 kts 88°
2026-04-23 15:21 -34.22063 23.05143 30440 ft 409 kts 88°
2026-04-23 15:21 -34.22076 23.08524 30080 ft 406 kts 88°
2026-04-23 15:21 -34.22089 23.11962 29681 ft 403 kts 88°
2026-04-23 15:21 -34.22101 23.15333 29297 ft 400 kts 88°
2026-04-23 15:22 -34.22112 23.18678 28932 ft 396 kts 88°
2026-04-23 15:22 -34.22120 23.21953 28565 ft 394 kts 88°
2026-04-23 15:22 -34.22129 23.25291 28194 ft 391 kts 88°
2026-04-23 15:22 -34.22137 23.28519 27842 ft 388 kts 88°
2026-04-23 15:23 -34.22143 23.31770 27483 ft 385 kts 88°
2026-04-23 15:23 -34.22149 23.34999 27131 ft 383 kts 87°
2026-04-23 15:23 -34.22155 23.38208 26779 ft 381 kts 88°
2026-04-23 15:23 -34.22160 23.41399 26427 ft 379 kts 88°
2026-04-23 15:24 -34.22163 23.44574 26086 ft 377 kts 87°
2026-04-23 15:24 -34.22166 23.47732 25736 ft 375 kts 87°
2026-04-23 15:24 -34.22167 23.50875 25392 ft 373 kts 87°
2026-04-23 15:24 -34.22168 23.53998 25050 ft 372 kts 87°
2026-04-23 15:25 -34.22168 23.57125 24702 ft 371 kts 87°
2026-04-23 15:25 -34.22168 23.60227 24361 ft 369 kts 88°
2026-04-23 15:25 -34.22167 23.63329 24008 ft 369 kts 87°
2026-04-23 15:25 -34.22165 23.66424 23630 ft 368 kts 88°
2026-04-23 15:26 -34.22162 23.69517 23245 ft 366 kts 88°
2026-04-23 15:26 -34.22158 23.72586 22884 ft 364 kts 87°
2026-04-23 15:26 -34.22154 23.75643 22541 ft 362 kts 87°
2026-04-23 15:26 -34.22149 23.78664 22203 ft 359 kts 87°
2026-04-23 15:27 -34.22143 23.81671 21865 ft 357 kts 87°
2026-04-23 15:27 -34.22137 23.84660 21528 ft 355 kts 88°
2026-04-23 15:27 -34.22130 23.87632 21199 ft 352 kts 87°
2026-04-23 15:27 -34.22122 23.90582 20870 ft 350 kts 87°
2026-04-23 15:28 -34.22113 23.93482 20547 ft 349 kts 87°
2026-04-23 15:28 -34.22103 23.96403 20220 ft 347 kts 88°
2026-04-23 15:28 -34.22094 23.99312 19897 ft 345 kts 87°
2026-04-23 15:28 -34.22083 24.02211 19567 ft 344 kts 87°
2026-04-23 15:29 -34.22072 24.05096 19245 ft 343 kts 87°
2026-04-23 15:29 -34.22060 24.07975 18919 ft 342 kts 88°
2026-04-23 15:29 -34.22048 24.10838 18585 ft 341 kts 87°
2026-04-23 15:29 -34.22035 24.13702 18225 ft 340 kts 87°
2026-04-23 15:30 -34.22021 24.16556 17878 ft 339 kts 87°
2026-04-23 15:30 -34.22006 24.19396 17541 ft 337 kts 88°
2026-04-23 15:30 -34.21992 24.22220 17219 ft 335 kts 87°
2026-04-23 15:30 -34.21977 24.25029 16894 ft 333 kts 87°
2026-04-23 15:31 -34.21961 24.27819 16578 ft 331 kts 87°
2026-04-23 15:31 -34.21945 24.30596 16259 ft 330 kts 87°
2026-04-23 15:31 -34.21928 24.33361 15941 ft 328 kts 87°
2026-04-23 15:31 -34.21911 24.36110 15633 ft 326 kts 87°
2026-04-23 15:32 -34.21894 24.38844 15323 ft 325 kts 87°
2026-04-23 15:32 -34.21876 24.41566 15006 ft 323 kts 87°
2026-04-23 15:32 -34.21857 24.44275 14705 ft 322 kts 87°
2026-04-23 15:32 -34.21836 24.46939 14400 ft 320 kts 87°
2026-04-23 15:33 -34.21815 24.49627 14093 ft 319 kts 86°
2026-04-23 15:33 -34.21794 24.52303 13750 ft 318 kts 87°
2026-04-23 15:33 -34.21774 24.54965 13421 ft 316 kts 87°
2026-04-23 15:33 -34.21754 24.57613 13107 ft 314 kts 87°
2026-04-23 15:34 -34.21732 24.60239 12798 ft 312 kts 86°
2026-04-23 15:34 -34.21710 24.62850 12496 ft 310 kts 86°
2026-04-23 15:34 -34.21540 24.65410 12306 ft 300 kts 77°
2026-04-23 15:34 -34.21133 24.67859 12095 ft 295 kts 75°
2026-04-23 15:35 -34.20662 24.70261 11817 ft 293 kts 74°
2026-04-23 15:35 -34.20186 24.72645 11528 ft 291 kts 74°
2026-04-23 15:35 -34.19718 24.75015 11248 ft 290 kts 74°
2026-04-23 15:35 -34.19260 24.77376 10958 ft 288 kts 74°
2026-04-23 15:36 -34.18810 24.79730 10671 ft 287 kts 74°
2026-04-23 15:36 -34.18367 24.82071 10402 ft 285 kts 75°
2026-04-23 15:36 -34.17936 24.84371 10268 ft 278 kts 75°
2026-04-23 15:36 -34.17510 24.86646 9958 ft 277 kts 75°
2026-04-23 15:37 -34.17086 24.88912 9672 ft 276 kts 75°
2026-04-23 15:37 -34.16665 24.91161 9382 ft 274 kts 74°
2026-04-23 15:37 -34.16247 24.93400 9101 ft 273 kts 74°
2026-04-23 15:37 -34.15831 24.95630 8818 ft 272 kts 74°
2026-04-23 15:38 -34.15411 24.97876 8384 ft 276 kts 74°
2026-04-23 15:38 -34.14989 25.00140 8069 ft 276 kts 74°
2026-04-23 15:38 -34.14567 25.02399 7782 ft 275 kts 74°
2026-04-23 15:38 -34.14146 25.04654 7495 ft 274 kts 73°
2026-04-23 15:39 -34.13727 25.06891 7214 ft 273 kts 74°
2026-04-23 15:39 -34.13308 25.09126 6941 ft 273 kts 73°
2026-04-23 15:39 -34.12889 25.11356 6651 ft 272 kts 73°
2026-04-23 15:39 -34.12469 25.13586 6362 ft 271 kts 73°
2026-04-23 15:40 -34.12054 25.15796 6081 ft 270 kts 73°
2026-04-23 15:40 -34.11640 25.17997 5800 ft 267 kts 73°
2026-04-23 15:40 -34.11244 25.20109 5585 ft 256 kts 73°
2026-04-23 15:40 -34.10867 25.22122 5452 ft 237 kts 73°
2026-04-23 15:41 -34.10516 25.23989 5302 ft 218 kts 72°
2026-04-23 15:41 -34.10197 25.25692 5207 ft 198 kts 73°
2026-04-23 15:41 -34.09906 25.27244 5069 ft 181 kts 72°
2026-04-23 15:41 -34.09622 25.28730 4663 ft 183 kts 72°
2026-04-23 15:42 -34.09343 25.30196 4385 ft 176 kts 72°
2026-04-23 15:42 -34.09081 25.31581 4297 ft 162 kts 73°
2026-04-23 15:42 -34.08837 25.32871 4212 ft 155 kts 73°
2026-04-23 15:42 -34.08589 25.34161 4170 ft 163 kts 73°
2026-04-23 15:43 -34.08329 25.35515 4094 ft 166 kts 73°
2026-04-23 15:43 -34.08073 25.36866 4008 ft 164 kts 73°
2026-04-23 15:43 -34.07818 25.38207 3946 ft 164 kts 74°
2026-04-23 15:43 -34.07561 25.39556 3792 ft 167 kts 75°
2026-04-23 15:44 -34.07306 25.40895 3666 ft 157 kts 74°
2026-04-23 15:44 -34.07079 25.42095 3489 ft 138 kts 75°
2026-04-23 15:44 -34.06874 25.43173 3341 ft 131 kts 74°
2026-04-23 15:44 -34.06671 25.44234 3165 ft 128 kts 75°
2026-04-23 15:45 -34.06473 25.45268 2999 ft 127 kts 75°
2026-04-23 15:45 -34.06236 25.46307 2844 ft 130 kts 66°
2026-04-23 15:45 -34.05849 25.47273 2651 ft 125 kts 65°
2026-04-23 15:45 -34.05462 25.48191 2474 ft 121 kts 63°
2026-04-23 15:46 -34.05040 25.49073 2325 ft 121 kts 61°
2026-04-23 15:46 -34.04605 25.49934 2151 ft 120 kts 61°
2026-04-23 15:46 -34.04165 25.50789 2004 ft 121 kts 61°
2026-04-23 15:46 -34.03719 25.51651 1836 ft 121 kts 61°
2026-04-23 15:47 -34.03277 25.52501 1673 ft 119 kts 60°
2026-04-23 15:47 -34.02835 25.53353 1520 ft 120 kts 60°
2026-04-23 15:47 -34.02372 25.54195 1349 ft 120 kts 60°
2026-04-23 15:47 -34.01941 25.55033 1141 ft 116 kts 61°
2026-04-23 15:48 -34.01519 25.55869 1045 ft 118 kts 61°
2026-04-23 15:48 -34.01080 25.56701 893 ft 118 kts 61°
2026-04-23 15:48 -34.00652 25.57531 722 ft 120 kts 62°
2026-04-23 15:48 -34.00206 25.58403 554 ft 122 kts 61°
2026-04-23 15:49 -33.99771 25.59256 395 ft 117 kts 62°
2026-04-23 15:49 -33.99348 25.60067 235 ft 111 kts 62°
2026-04-23 15:49 -33.99007 25.60737 211 ft 67 kts 59°
2026-04-23 15:49 -33.98784 25.61166 216 ft 60 kts 58°
2026-04-23 15:50 -33.98599 25.61522 215 ft 30 kts 58°
2026-04-23 15:50 -33.98507 25.61694 210 ft 13 kts 37°
2026-04-23 15:50 -33.98437 25.61668 214 ft 15 kts 317°
2026-04-23 15:50 -33.98363 25.61590 217 ft 11 kts 287°
2026-04-23 15:51 -33.98387 25.61524 212 ft 13 kts 238°
2026-04-23 15:51 -33.98440 25.61391 214 ft 19 kts 247°
2026-04-23 15:51 -33.98489 25.61287 211 ft 16 kts 238°
2026-04-23 15:51 -33.98515 25.61218 217 ft 2 kts 285°
2026-04-23 15:52 -33.98492 25.61193 213 ft 1 kts 331°
2026-04-23 15:52 -33.98481 25.61185 211 ft 1 kts 329°
2026-04-23 15:52 -33.98479 25.61184 211 ft 0 kts 329°